Year,Month,Day,Hour,Minute,Value (Times are PST for temperature in C)
2016,09,28,00,00,9.30
2016,09,28,00,01,9.30
2016,09,28,00,02,9.20
2016,09,28,00,03,9.20
2016,09,28,00,04,9.20
2016,09,28,00,05,9.20
2016,09,28,00,06,9.20
2016,09,28,00,07,9.20
2016,09,28,00,08,9.20
2016,09,28,00,09,9.10
2016,09,28,00,10,9.10
2016,09,28,00,11,9.10
2016,09,28,00,12,9.10
2016,09,28,00,13,9.10
2016,09,28,00,14,9.10
2016,09,28,00,15,9.10
2016,09,28,00,16,9.10
2016,09,28,00,17,9.10
2016,09,28,00,18,9.10
2016,09,28,00,19,9.10
2016,09,28,00,20,9.10
2016,09,28,00,21,9.10
2016,09,28,00,22,9.10
2016,09,28,00,23,9.10
2016,09,28,00,24,9.10
2016,09,28,00,25,9.10
2016,09,28,00,26,9.10
2016,09,28,00,27,9.10
2016,09,28,00,28,9.10
2016,09,28,00,29,9.10
2016,09,28,00,30,9.00
2016,09,28,00,31,9.00
2016,09,28,00,32,9.00
2016,09,28,00,33,9.00
2016,09,28,00,34,8.90
2016,09,28,00,35,8.90
2016,09,28,00,36,8.90
2016,09,28,00,37,8.90
2016,09,28,00,38,8.90
2016,09,28,00,39,8.90
2016,09,28,00,40,8.90
2016,09,28,00,41,8.80
2016,09,28,00,42,8.80
2016,09,28,00,43,8.80
2016,09,28,00,44,8.80
2016,09,28,00,45,8.80
2016,09,28,00,46,8.80
2016,09,28,00,47,8.80
2016,09,28,00,48,8.80
2016,09,28,00,49,8.80
2016,09,28,00,50,8.80
2016,09,28,00,51,8.80
2016,09,28,00,52,8.70
2016,09,28,00,53,8.70
2016,09,28,00,54,8.70
2016,09,28,00,55,8.70
2016,09,28,00,56,8.70
2016,09,28,00,57,8.70
2016,09,28,00,58,8.70
2016,09,28,00,59,8.70
2016,09,28,01,00,8.70
2016,09,28,01,01,8.70
2016,09,28,01,02,8.70
2016,09,28,01,03,8.60
2016,09,28,01,04,8.60
2016,09,28,01,05,8.60
2016,09,28,01,06,8.60
2016,09,28,01,07,8.60
2016,09,28,01,08,8.60
2016,09,28,01,09,8.60
2016,09,28,01,10,8.60
2016,09,28,01,11,8.60
2016,09,28,01,12,8.50
2016,09,28,01,13,8.50
2016,09,28,01,14,8.50
2016,09,28,01,15,8.50
2016,09,28,01,16,8.50
2016,09,28,01,17,8.40
2016,09,28,01,18,8.40
2016,09,28,01,19,8.40
2016,09,28,01,20,8.40
2016,09,28,01,21,8.40
2016,09,28,01,22,8.40
2016,09,28,01,23,8.40
2016,09,28,01,24,8.40
2016,09,28,01,25,8.40
2016,09,28,01,26,8.40
2016,09,28,01,27,8.40
2016,09,28,01,28,8.40
2016,09,28,01,29,8.40
2016,09,28,01,30,8.40
2016,09,28,01,31,8.40
2016,09,28,01,32,8.30
2016,09,28,01,33,8.30
2016,09,28,01,34,8.30
2016,09,28,01,35,8.30
2016,09,28,01,36,8.30
2016,09,28,01,37,8.30
2016,09,28,01,38,8.30
2016,09,28,01,39,8.30
2016,09,28,01,40,8.30
2016,09,28,01,41,8.30
2016,09,28,01,42,8.30
2016,09,28,01,43,8.30
2016,09,28,01,44,8.30
2016,09,28,01,45,8.20
2016,09,28,01,46,8.20
2016,09,28,01,47,8.20
2016,09,28,01,48,8.20
2016,09,28,01,49,8.20
2016,09,28,01,50,8.20
2016,09,28,01,51,8.20
2016,09,28,01,52,8.20
2016,09,28,01,53,8.20
2016,09,28,01,54,8.20
2016,09,28,01,55,8.20
2016,09,28,01,56,8.20
2016,09,28,01,57,8.20
2016,09,28,01,58,8.20
2016,09,28,01,59,8.20
2016,09,28,02,00,8.10
2016,09,28,02,01,8.10
2016,09,28,02,02,8.10
2016,09,28,02,03,8.10
2016,09,28,02,04,8.10
2016,09,28,02,05,8.10
2016,09,28,02,06,8.10
2016,09,28,02,07,8.10
2016,09,28,02,08,8.10
2016,09,28,02,09,8.10
2016,09,28,02,10,8.00
2016,09,28,02,11,8.00
2016,09,28,02,12,8.00
2016,09,28,02,13,8.00
2016,09,28,02,14,8.00
2016,09,28,02,15,7.90
2016,09,28,02,16,7.90
2016,09,28,02,17,7.90
2016,09,28,02,18,7.90
2016,09,28,02,19,7.90
2016,09,28,02,20,7.90
2016,09,28,02,21,7.80
2016,09,28,02,22,7.80
2016,09,28,02,23,7.80
2016,09,28,02,24,7.80
2016,09,28,02,25,7.80
2016,09,28,02,26,7.80
2016,09,28,02,27,7.80
2016,09,28,02,28,7.80
2016,09,28,02,29,7.80
2016,09,28,02,30,7.70
2016,09,28,02,31,7.70
2016,09,28,02,32,7.70
2016,09,28,02,33,7.70
2016,09,28,02,34,7.70
2016,09,28,02,35,7.70
2016,09,28,02,36,7.70
2016,09,28,02,37,7.70
2016,09,28,02,38,7.70
2016,09,28,02,39,7.70
2016,09,28,02,40,7.70
2016,09,28,02,41,7.70
2016,09,28,02,42,7.70
2016,09,28,02,43,7.70
2016,09,28,02,44,7.60
2016,09,28,02,45,7.60
2016,09,28,02,46,7.60
2016,09,28,02,47,7.60
2016,09,28,02,48,7.60
2016,09,28,02,49,7.60
2016,09,28,02,50,7.60
2016,09,28,02,51,7.60
2016,09,28,02,52,7.60
2016,09,28,02,53,7.60
2016,09,28,02,54,7.50
2016,09,28,02,55,7.50
2016,09,28,02,56,7.50
2016,09,28,02,57,7.50
2016,09,28,02,58,7.50
2016,09,28,02,59,7.50
2016,09,28,03,00,7.50
2016,09,28,03,01,7.50
2016,09,28,03,02,7.50
2016,09,28,03,03,7.50
2016,09,28,03,04,7.50
2016,09,28,03,05,7.50
2016,09,28,03,06,7.50
2016,09,28,03,07,7.60
2016,09,28,03,08,7.60
2016,09,28,03,09,7.60
2016,09,28,03,10,7.60
2016,09,28,03,11,7.60
2016,09,28,03,12,7.60
2016,09,28,03,13,7.60
2016,09,28,03,14,7.60
2016,09,28,03,15,7.60
2016,09,28,03,16,7.60
2016,09,28,03,17,7.60
2016,09,28,03,18,7.60
2016,09,28,03,19,7.60
2016,09,28,03,20,7.60
2016,09,28,03,21,7.60
2016,09,28,03,22,7.60
2016,09,28,03,23,7.60
2016,09,28,03,24,7.60
2016,09,28,03,25,7.60
2016,09,28,03,26,7.60
2016,09,28,03,27,7.60
2016,09,28,03,28,7.60
2016,09,28,03,29,7.60
2016,09,28,03,30,7.60
2016,09,28,03,31,7.60
2016,09,28,03,32,7.60
2016,09,28,03,33,7.60
2016,09,28,03,34,7.60
2016,09,28,03,35,7.60
2016,09,28,03,36,7.60
2016,09,28,03,37,7.60
2016,09,28,03,38,7.60
2016,09,28,03,39,7.60
2016,09,28,03,40,7.60
2016,09,28,03,41,7.60
2016,09,28,03,42,7.60
2016,09,28,03,43,7.60
2016,09,28,03,44,7.60
2016,09,28,03,45,7.60
2016,09,28,03,46,7.60
2016,09,28,03,47,7.60
2016,09,28,03,48,7.70
2016,09,28,03,49,7.70
2016,09,28,03,50,7.70
2016,09,28,03,51,7.80
2016,09,28,03,52,7.80
2016,09,28,03,53,7.80
2016,09,28,03,54,7.80
2016,09,28,03,55,7.90
2016,09,28,03,56,7.90
2016,09,28,03,57,7.90
2016,09,28,03,58,7.90
2016,09,28,03,59,7.90
2016,09,28,04,00,7.90
2016,09,28,04,01,7.90
2016,09,28,04,02,8.00
2016,09,28,04,03,8.00
2016,09,28,04,04,8.00
2016,09,28,04,05,8.10
2016,09,28,04,06,8.10
2016,09,28,04,07,8.10
2016,09,28,04,08,8.10
2016,09,28,04,09,8.10
2016,09,28,04,10,8.10
2016,09,28,04,11,8.10
2016,09,28,04,12,8.10
2016,09,28,04,13,8.10
2016,09,28,04,14,8.10
2016,09,28,04,15,8.10
2016,09,28,04,16,8.10
2016,09,28,04,17,8.10
2016,09,28,04,18,8.10
2016,09,28,04,19,8.20
2016,09,28,04,20,8.20
2016,09,28,04,21,8.20
2016,09,28,04,22,8.20
2016,09,28,04,23,8.20
2016,09,28,04,24,8.20
2016,09,28,04,25,8.20
2016,09,28,04,26,8.20
2016,09,28,04,27,8.10
2016,09,28,04,28,8.10
2016,09,28,04,29,8.10
2016,09,28,04,30,8.10
2016,09,28,04,31,8.10
2016,09,28,04,32,8.10
2016,09,28,04,33,8.10
2016,09,28,04,34,8.10
2016,09,28,04,35,8.10
2016,09,28,04,36,8.00
2016,09,28,04,37,8.00
2016,09,28,04,38,8.00
2016,09,28,04,39,8.00
2016,09,28,04,40,8.00
2016,09,28,04,41,8.00
2016,09,28,04,42,8.00
2016,09,28,04,43,8.00
2016,09,28,04,44,8.00
2016,09,28,04,45,8.00
2016,09,28,04,46,8.00
2016,09,28,04,47,8.00
2016,09,28,04,48,8.00
2016,09,28,04,49,8.10
2016,09,28,04,50,8.00
2016,09,28,04,51,8.10
2016,09,28,04,52,8.10
2016,09,28,04,53,8.10
2016,09,28,04,54,8.10
2016,09,28,04,55,8.10
2016,09,28,04,56,8.10
2016,09,28,04,57,8.10
2016,09,28,04,58,8.10
2016,09,28,04,59,8.10
2016,09,28,05,00,8.00
2016,09,28,05,01,8.00
2016,09,28,05,02,8.00
2016,09,28,05,03,8.00
2016,09,28,05,04,8.00
2016,09,28,05,05,8.00
2016,09,28,05,06,8.00
2016,09,28,05,07,8.00
2016,09,28,05,08,8.00
2016,09,28,05,09,8.00
2016,09,28,05,10,8.00
2016,09,28,05,11,8.00
2016,09,28,05,12,8.00
2016,09,28,05,13,8.00
2016,09,28,05,14,8.00
2016,09,28,05,15,8.00
2016,09,28,05,16,8.00
2016,09,28,05,17,7.90
2016,09,28,05,18,7.90
2016,09,28,05,19,7.90
2016,09,28,05,20,7.90
2016,09,28,05,21,7.90
2016,09,28,05,22,7.80
2016,09,28,05,23,7.80
2016,09,28,05,24,7.80
2016,09,28,05,25,7.80
2016,09,28,05,26,7.80
2016,09,28,05,27,7.70
2016,09,28,05,28,7.70
2016,09,28,05,29,7.70
2016,09,28,05,30,7.70
2016,09,28,05,31,7.70
2016,09,28,05,32,7.70
2016,09,28,05,33,7.60
2016,09,28,05,34,7.60
2016,09,28,05,35,7.60
2016,09,28,05,36,7.60
2016,09,28,05,37,7.50
2016,09,28,05,38,7.50
2016,09,28,05,39,7.50
2016,09,28,05,40,7.40
2016,09,28,05,41,7.40
2016,09,28,05,42,7.40
2016,09,28,05,43,7.40
2016,09,28,05,44,7.30
2016,09,28,05,45,7.30
2016,09,28,05,46,7.30
2016,09,28,05,47,7.30
2016,09,28,05,48,7.30
2016,09,28,05,49,7.20
2016,09,28,05,50,7.20
2016,09,28,05,51,7.20
2016,09,28,05,52,7.20
2016,09,28,05,53,7.20
2016,09,28,05,54,7.20
2016,09,28,05,55,7.20
2016,09,28,05,56,7.20
2016,09,28,05,57,7.10
2016,09,28,05,58,7.10
2016,09,28,05,59,7.10
2016,09,28,06,00,7.10
2016,09,28,06,01,7.10
2016,09,28,06,02,7.10
2016,09,28,06,03,7.10
2016,09,28,06,04,7.10
2016,09,28,06,05,7.00
2016,09,28,06,06,7.00
2016,09,28,06,07,7.00
2016,09,28,06,08,7.00
2016,09,28,06,09,7.00
2016,09,28,06,10,7.00
2016,09,28,06,11,6.90
2016,09,28,06,12,6.90
2016,09,28,06,13,6.90
2016,09,28,06,14,6.90
2016,09,28,06,15,6.90
2016,09,28,06,16,6.90
2016,09,28,06,17,6.90
2016,09,28,06,18,6.90
2016,09,28,06,19,6.90
2016,09,28,06,20,6.90
2016,09,28,06,21,6.80
2016,09,28,06,22,6.80
2016,09,28,06,23,6.80
2016,09,28,06,24,6.80
2016,09,28,06,25,6.80
2016,09,28,06,26,6.80
2016,09,28,06,27,6.80
2016,09,28,06,28,6.80
2016,09,28,06,29,6.80
2016,09,28,06,30,6.80
2016,09,28,06,31,6.80
2016,09,28,06,32,6.80
2016,09,28,06,33,6.80
2016,09,28,06,34,6.80
2016,09,28,06,35,6.70
2016,09,28,06,36,6.70
2016,09,28,06,37,6.70
2016,09,28,06,38,6.70
2016,09,28,06,39,6.70
2016,09,28,06,40,6.70
2016,09,28,06,41,6.70
2016,09,28,06,42,6.70
2016,09,28,06,43,6.70
2016,09,28,06,44,6.70
2016,09,28,06,45,6.70
2016,09,28,06,46,6.70
2016,09,28,06,47,6.80
2016,09,28,06,48,6.80
2016,09,28,06,49,6.80
2016,09,28,06,50,6.80
2016,09,28,06,51,6.80
2016,09,28,06,52,6.80
2016,09,28,06,53,6.80
2016,09,28,06,54,6.90
2016,09,28,06,55,6.90
2016,09,28,06,56,6.90
2016,09,28,06,57,6.90
2016,09,28,06,58,7.00
2016,09,28,06,59,7.00
2016,09,28,07,00,7.00
2016,09,28,07,01,7.00
2016,09,28,07,02,7.10
2016,09,28,07,03,7.10
2016,09,28,07,04,7.10
2016,09,28,07,05,7.10
2016,09,28,07,06,7.20
2016,09,28,07,07,7.20
2016,09,28,07,08,7.20
2016,09,28,07,09,7.20
2016,09,28,07,10,7.20
2016,09,28,07,11,7.20
2016,09,28,07,12,7.30
2016,09,28,07,13,7.30
2016,09,28,07,14,7.30
2016,09,28,07,15,7.30
2016,09,28,07,16,7.30
2016,09,28,07,17,7.30
2016,09,28,07,18,7.30
2016,09,28,07,19,7.30
2016,09,28,07,20,7.30
2016,09,28,07,21,7.30
2016,09,28,07,22,7.30
2016,09,28,07,23,7.30
2016,09,28,07,24,7.20
2016,09,28,07,25,7.20
2016,09,28,07,26,7.20
2016,09,28,07,27,7.20
2016,09,28,07,28,7.20
2016,09,28,07,29,7.10
2016,09,28,07,30,7.10
2016,09,28,07,31,7.10
2016,09,28,07,32,7.10
2016,09,28,07,33,7.10
2016,09,28,07,34,7.10
2016,09,28,07,35,7.10
2016,09,28,07,36,7.10
2016,09,28,07,37,7.00
2016,09,28,07,38,7.00
2016,09,28,07,39,7.00
2016,09,28,07,40,6.90
2016,09,28,07,41,6.90
2016,09,28,07,42,6.90
2016,09,28,07,43,6.90
2016,09,28,07,44,6.90
2016,09,28,07,45,6.90
2016,09,28,07,46,6.90
2016,09,28,07,47,6.90
2016,09,28,07,48,6.90
2016,09,28,07,49,6.90
2016,09,28,07,50,6.90
2016,09,28,07,51,6.90
2016,09,28,07,52,6.90
2016,09,28,07,53,6.90
2016,09,28,07,54,6.90
2016,09,28,07,55,6.90
2016,09,28,07,56,6.90
2016,09,28,07,57,6.80
2016,09,28,07,58,6.80
2016,09,28,07,59,6.80
2016,09,28,08,00,6.80
2016,09,28,08,01,6.80
2016,09,28,08,02,6.80
2016,09,28,08,03,6.70
2016,09,28,08,04,6.70
2016,09,28,08,05,6.70
2016,09,28,08,06,6.70
2016,09,28,08,07,6.70
2016,09,28,08,08,6.70
2016,09,28,08,09,6.70
2016,09,28,08,10,6.70
2016,09,28,08,11,6.70
2016,09,28,08,12,6.70
2016,09,28,08,13,6.70
2016,09,28,08,14,6.80
2016,09,28,08,15,6.80
2016,09,28,08,16,6.80
2016,09,28,08,17,6.90
2016,09,28,08,18,7.00
2016,09,28,08,19,7.00
2016,09,28,08,20,7.20
2016,09,28,08,21,7.30
2016,09,28,08,22,7.40
2016,09,28,08,23,7.60
2016,09,28,08,24,7.70
2016,09,28,08,25,7.80
2016,09,28,08,26,8.00
2016,09,28,08,27,8.10
2016,09,28,08,28,8.30
2016,09,28,08,29,8.50
2016,09,28,08,30,8.70
2016,09,28,08,31,8.80
2016,09,28,08,32,9.00
2016,09,28,08,33,9.10
2016,09,28,08,34,9.30
2016,09,28,08,35,9.40
2016,09,28,08,36,9.50
2016,09,28,08,37,9.60
2016,09,28,08,38,9.70
2016,09,28,08,39,9.80
2016,09,28,08,40,9.90
2016,09,28,08,41,10.10
2016,09,28,08,42,10.20
2016,09,28,08,43,10.30
2016,09,28,08,44,10.40
2016,09,28,08,45,10.50
2016,09,28,08,46,10.60
2016,09,28,08,47,10.70
2016,09,28,08,48,10.80
2016,09,28,08,49,10.80
2016,09,28,08,50,10.90
2016,09,28,08,51,11.00
2016,09,28,08,52,11.10
2016,09,28,08,53,11.20
2016,09,28,08,54,11.30
2016,09,28,08,55,11.30
2016,09,28,08,56,11.40
2016,09,28,08,57,11.50
2016,09,28,08,58,11.50
2016,09,28,08,59,11.60
2016,09,28,09,00,11.70
2016,09,28,09,01,11.70
2016,09,28,09,02,11.70
2016,09,28,09,03,11.80
2016,09,28,09,04,11.80
2016,09,28,09,05,11.80
2016,09,28,09,06,11.90
2016,09,28,09,07,11.90
2016,09,28,09,08,11.90
2016,09,28,09,09,12.00
2016,09,28,09,10,12.00
2016,09,28,09,11,12.00
2016,09,28,09,12,12.10
2016,09,28,09,13,12.10
2016,09,28,09,14,12.10
2016,09,28,09,15,12.20
2016,09,28,09,16,12.20
2016,09,28,09,17,12.20
2016,09,28,09,18,12.30
2016,09,28,09,19,12.30
2016,09,28,09,20,12.30
2016,09,28,09,21,12.40
2016,09,28,09,22,12.40
2016,09,28,09,23,12.50
2016,09,28,09,24,12.50
2016,09,28,09,25,12.60
2016,09,28,09,26,12.60
2016,09,28,09,27,12.60
2016,09,28,09,28,12.60
2016,09,28,09,29,12.70
2016,09,28,09,30,12.70
2016,09,28,09,31,12.70
2016,09,28,09,32,12.70
2016,09,28,09,33,12.70
2016,09,28,09,34,12.70
2016,09,28,09,35,12.70
2016,09,28,09,36,12.80
2016,09,28,09,37,12.80
2016,09,28,09,38,12.80
2016,09,28,09,39,12.80
2016,09,28,09,40,12.80
2016,09,28,09,41,12.90
2016,09,28,09,42,12.90
2016,09,28,09,43,12.90
2016,09,28,09,44,12.90
2016,09,28,09,45,13.00
2016,09,28,09,46,13.00
2016,09,28,09,47,13.00
2016,09,28,09,48,13.00
2016,09,28,09,49,13.00
2016,09,28,09,50,13.00
2016,09,28,09,51,13.10
2016,09,28,09,52,13.10
2016,09,28,09,53,13.10
2016,09,28,09,54,13.10
2016,09,28,09,55,13.10
2016,09,28,09,56,13.10
2016,09,28,09,57,13.10
2016,09,28,09,58,13.20
2016,09,28,09,59,13.20
2016,09,28,10,00,13.20
2016,09,28,10,01,13.20
2016,09,28,10,02,13.20
2016,09,28,10,03,13.20
2016,09,28,10,04,13.20
2016,09,28,10,05,13.30
2016,09,28,10,06,13.30
2016,09,28,10,07,13.30
2016,09,28,10,08,13.30
2016,09,28,10,09,13.40
2016,09,28,10,10,13.40
2016,09,28,10,11,13.40
2016,09,28,10,12,13.40
2016,09,28,10,13,13.40
2016,09,28,10,14,13.50
2016,09,28,10,15,13.50
2016,09,28,10,16,13.60
2016,09,28,10,17,13.60
2016,09,28,10,18,13.60
2016,09,28,10,19,13.60
2016,09,28,10,20,13.70
2016,09,28,10,21,13.70
2016,09,28,10,22,13.70
2016,09,28,10,23,13.70
2016,09,28,10,24,13.70
2016,09,28,10,25,13.80
2016,09,28,10,26,13.80
2016,09,28,10,27,13.80
2016,09,28,10,28,13.80
2016,09,28,10,29,13.90
2016,09,28,10,30,13.90
2016,09,28,10,31,14.00
2016,09,28,10,32,14.00
2016,09,28,10,33,14.10
2016,09,28,10,34,14.10
2016,09,28,10,35,14.20
2016,09,28,10,36,14.20
2016,09,28,10,37,14.20
2016,09,28,10,38,14.30
2016,09,28,10,39,14.30
2016,09,28,10,40,14.40
2016,09,28,10,41,14.50
2016,09,28,10,42,14.60
2016,09,28,10,43,14.70
2016,09,28,10,44,14.70
2016,09,28,10,45,14.80
2016,09,28,10,46,14.90
2016,09,28,10,47,14.90
2016,09,28,10,48,15.00
2016,09,28,10,49,15.00
2016,09,28,10,50,15.10
2016,09,28,10,51,15.20
2016,09,28,10,52,15.20
2016,09,28,10,53,15.30
2016,09,28,10,54,15.30
2016,09,28,10,55,15.30
2016,09,28,10,56,15.30
2016,09,28,10,57,15.30
2016,09,28,10,58,15.40
2016,09,28,10,59,15.40
2016,09,28,11,00,15.40
2016,09,28,11,01,15.50
2016,09,28,11,02,15.50
2016,09,28,11,03,15.60
2016,09,28,11,04,15.60
2016,09,28,11,05,15.60
2016,09,28,11,06,15.60
2016,09,28,11,07,15.60
2016,09,28,11,08,15.60
2016,09,28,11,09,15.60
2016,09,28,11,10,15.60
2016,09,28,11,11,15.60
2016,09,28,11,12,15.60
2016,09,28,11,13,15.60
2016,09,28,11,14,15.60
2016,09,28,11,15,15.60
2016,09,28,11,16,15.60
2016,09,28,11,17,15.50
2016,09,28,11,18,15.50
2016,09,28,11,19,15.50
2016,09,28,11,20,15.50
2016,09,28,11,21,15.50
2016,09,28,11,22,15.50
2016,09,28,11,23,15.60
2016,09,28,11,24,15.60
2016,09,28,11,25,15.60
2016,09,28,11,26,15.70
2016,09,28,11,27,15.70
2016,09,28,11,28,15.70
2016,09,28,11,29,15.70
2016,09,28,11,30,15.80
2016,09,28,11,31,15.80
2016,09,28,11,32,15.80
2016,09,28,11,33,15.90
2016,09,28,11,34,15.90
2016,09,28,11,35,16.00
2016,09,28,11,36,16.00
2016,09,28,11,37,16.00
2016,09,28,11,38,16.00
2016,09,28,11,39,16.00
2016,09,28,11,40,16.10
2016,09,28,11,41,16.10
2016,09,28,11,42,16.10
2016,09,28,11,43,16.10
2016,09,28,11,44,16.10
2016,09,28,11,45,16.10
2016,09,28,11,46,16.10
2016,09,28,11,47,16.10
2016,09,28,11,48,16.10
2016,09,28,11,49,16.10
2016,09,28,11,50,16.10
2016,09,28,11,51,16.10
2016,09,28,11,52,16.10
2016,09,28,11,53,16.10
2016,09,28,11,54,16.20
2016,09,28,11,55,16.20
2016,09,28,11,56,16.20
2016,09,28,11,57,16.30
2016,09,28,11,58,16.30
2016,09,28,11,59,16.30
2016,09,28,12,00,16.40
2016,09,28,12,01,16.40
2016,09,28,12,02,16.30
2016,09,28,12,03,16.30
2016,09,28,12,04,16.30
2016,09,28,12,05,16.20
2016,09,28,12,06,16.10
2016,09,28,12,07,16.00
2016,09,28,12,08,15.90
2016,09,28,12,09,15.90
2016,09,28,12,10,15.80
2016,09,28,12,11,15.80
2016,09,28,12,12,15.80
2016,09,28,12,13,15.80
2016,09,28,12,14,15.80
2016,09,28,12,15,15.80
2016,09,28,12,16,15.80
2016,09,28,12,17,15.80
2016,09,28,12,18,15.80
2016,09,28,12,19,15.90
2016,09,28,12,20,15.90
2016,09,28,12,21,15.90
2016,09,28,12,22,16.00
2016,09,28,12,23,16.10
2016,09,28,12,24,16.10
2016,09,28,12,25,16.20
2016,09,28,12,26,16.10
2016,09,28,12,27,16.20
2016,09,28,12,28,16.20
2016,09,28,12,29,16.20
2016,09,28,12,30,16.20
2016,09,28,12,31,16.20
2016,09,28,12,32,16.20
2016,09,28,12,33,16.30
2016,09,28,12,34,16.30
2016,09,28,12,35,16.30
2016,09,28,12,36,16.30
2016,09,28,12,37,16.30
2016,09,28,12,38,16.40
2016,09,28,12,39,16.40
2016,09,28,12,40,16.50
2016,09,28,12,41,16.50
2016,09,28,12,42,16.60
2016,09,28,12,43,16.60
2016,09,28,12,44,16.60
2016,09,28,12,45,16.60
2016,09,28,12,46,16.60
2016,09,28,12,47,16.60
2016,09,28,12,48,16.50
2016,09,28,12,49,16.50
2016,09,28,12,50,16.50
2016,09,28,12,51,16.50
2016,09,28,12,52,16.50
2016,09,28,12,53,16.50
2016,09,28,12,54,16.50
2016,09,28,12,55,16.50
2016,09,28,12,56,16.40
2016,09,28,12,57,16.40
2016,09,28,12,58,16.40
2016,09,28,12,59,16.40
2016,09,28,13,00,16.40
2016,09,28,13,01,16.40
2016,09,28,13,02,16.40
2016,09,28,13,03,16.40
2016,09,28,13,04,16.40
2016,09,28,13,05,16.40
2016,09,28,13,06,16.50
2016,09,28,13,07,16.50
2016,09,28,13,08,16.60
2016,09,28,13,09,16.70
2016,09,28,13,10,16.70
2016,09,28,13,11,16.80
2016,09,28,13,12,16.80
2016,09,28,13,13,16.90
2016,09,28,13,14,16.90
2016,09,28,13,15,16.90
2016,09,28,13,16,17.00
2016,09,28,13,17,17.00
2016,09,28,13,18,17.00
2016,09,28,13,19,17.00
2016,09,28,13,20,17.10
2016,09,28,13,21,17.10
2016,09,28,13,22,17.10
2016,09,28,13,23,17.20
2016,09,28,13,24,17.30
2016,09,28,13,25,17.40
2016,09,28,13,26,17.40
2016,09,28,13,27,17.40
2016,09,28,13,28,17.50
2016,09,28,13,29,17.50
2016,09,28,13,30,17.60
2016,09,28,13,31,17.60
2016,09,28,13,32,17.60
2016,09,28,13,33,17.70
2016,09,28,13,34,17.70
2016,09,28,13,35,17.80
2016,09,28,13,36,17.80
2016,09,28,13,37,17.90
2016,09,28,13,38,18.00
2016,09,28,13,39,18.00
2016,09,28,13,40,18.10
2016,09,28,13,41,18.10
2016,09,28,13,42,18.20
2016,09,28,13,43,18.20
2016,09,28,13,44,18.20
2016,09,28,13,45,18.20
2016,09,28,13,46,18.20
2016,09,28,13,47,18.30
2016,09,28,13,48,18.30
2016,09,28,13,49,18.30
2016,09,28,13,50,18.30
2016,09,28,13,51,18.40
2016,09,28,13,52,18.40
2016,09,28,13,53,18.40
2016,09,28,13,54,18.40
2016,09,28,13,55,18.50
2016,09,28,13,56,18.50
2016,09,28,13,57,18.50
2016,09,28,13,58,18.50
2016,09,28,13,59,18.50
2016,09,28,14,00,18.50
2016,09,28,14,01,18.50
2016,09,28,14,02,18.50
2016,09,28,14,03,18.50
2016,09,28,14,04,18.50
2016,09,28,14,05,18.60
2016,09,28,14,06,18.60
2016,09,28,14,07,18.60
2016,09,28,14,08,18.60
2016,09,28,14,09,18.60
2016,09,28,14,10,18.70
2016,09,28,14,11,18.70
2016,09,28,14,12,18.70
2016,09,28,14,13,18.70
2016,09,28,14,14,18.80
2016,09,28,14,15,18.80
2016,09,28,14,16,18.90
2016,09,28,14,17,18.90
2016,09,28,14,18,19.00
2016,09,28,14,19,19.00
2016,09,28,14,20,19.00
2016,09,28,14,21,19.00
2016,09,28,14,22,19.00
2016,09,28,14,23,19.10
2016,09,28,14,24,19.10
2016,09,28,14,25,19.10
2016,09,28,14,26,19.20
2016,09,28,14,27,19.20
2016,09,28,14,28,19.30
2016,09,28,14,29,19.20
2016,09,28,14,30,19.20
2016,09,28,14,31,19.20
2016,09,28,14,32,19.30
2016,09,28,14,33,19.20
2016,09,28,14,34,19.20
2016,09,28,14,35,19.20
2016,09,28,14,36,19.30
2016,09,28,14,37,19.30
2016,09,28,14,38,19.40
2016,09,28,14,39,19.40
2016,09,28,14,40,19.50
2016,09,28,14,41,19.50
2016,09,28,14,42,19.60
2016,09,28,14,43,19.60
2016,09,28,14,44,19.60
2016,09,28,14,45,19.60
2016,09,28,14,46,19.60
2016,09,28,14,47,19.60
2016,09,28,14,48,19.60
2016,09,28,14,49,19.50
2016,09,28,14,50,19.50
2016,09,28,14,51,19.40
2016,09,28,14,52,19.40
2016,09,28,14,53,19.40
2016,09,28,14,54,19.30
2016,09,28,14,55,19.30
2016,09,28,14,56,19.20
2016,09,28,14,57,19.20
2016,09,28,14,58,19.10
2016,09,28,14,59,19.10
2016,09,28,15,00,19.00
2016,09,28,15,01,18.90
2016,09,28,15,02,18.90
2016,09,28,15,03,18.80
2016,09,28,15,04,18.80
2016,09,28,15,05,18.80
2016,09,28,15,06,18.70
2016,09,28,15,07,18.70
2016,09,28,15,08,18.70
2016,09,28,15,09,18.70
2016,09,28,15,10,18.70
2016,09,28,15,11,18.80
2016,09,28,15,12,18.80
2016,09,28,15,13,18.90
2016,09,28,15,14,18.90
2016,09,28,15,15,19.00
2016,09,28,15,16,19.00
2016,09,28,15,17,19.10
2016,09,28,15,18,19.10
2016,09,28,15,19,19.10
2016,09,28,15,20,19.10
2016,09,28,15,21,19.10
2016,09,28,15,22,19.20
2016,09,28,15,23,19.20
2016,09,28,15,24,19.20
2016,09,28,15,25,19.20
2016,09,28,15,26,19.10
2016,09,28,15,27,19.10
2016,09,28,15,28,19.10
2016,09,28,15,29,19.10
2016,09,28,15,30,19.10
2016,09,28,15,31,19.10
2016,09,28,15,32,19.10
2016,09,28,15,33,19.20
2016,09,28,15,34,19.20
2016,09,28,15,35,19.20
2016,09,28,15,36,19.20
2016,09,28,15,37,19.20
2016,09,28,15,38,19.20
2016,09,28,15,39,19.20
2016,09,28,15,40,19.10
2016,09,28,15,41,19.10
2016,09,28,15,42,19.10
2016,09,28,15,43,19.10
2016,09,28,15,44,19.10
2016,09,28,15,45,19.10
2016,09,28,15,46,19.10
2016,09,28,15,47,19.20
2016,09,28,15,48,19.20
2016,09,28,15,49,19.20
2016,09,28,15,50,19.20
2016,09,28,15,51,19.30
2016,09,28,15,52,19.30
2016,09,28,15,53,19.30
2016,09,28,15,54,19.40
2016,09,28,15,55,19.40
2016,09,28,15,56,19.50
2016,09,28,15,57,19.60
2016,09,28,15,58,19.70
2016,09,28,15,59,19.70
2016,09,28,16,00,19.80
2016,09,28,16,01,19.80
2016,09,28,16,02,19.80
2016,09,28,16,03,19.90
2016,09,28,16,04,19.90
2016,09,28,16,05,19.90
2016,09,28,16,06,19.90
2016,09,28,16,07,19.90
2016,09,28,16,08,20.00
2016,09,28,16,09,20.00
2016,09,28,16,10,20.00
2016,09,28,16,11,20.00
2016,09,28,16,12,20.00
2016,09,28,16,13,20.00
2016,09,28,16,14,20.10
2016,09,28,16,15,20.10
2016,09,28,16,16,20.10
2016,09,28,16,17,20.10
2016,09,28,16,18,20.20
2016,09,28,16,19,20.20
2016,09,28,16,20,20.30
2016,09,28,16,21,20.30
2016,09,28,16,22,20.30
2016,09,28,16,23,20.40
2016,09,28,16,24,20.40
2016,09,28,16,25,20.40
2016,09,28,16,26,20.40
2016,09,28,16,27,20.50
2016,09,28,16,28,20.50
2016,09,28,16,29,20.50
2016,09,28,16,30,20.50
2016,09,28,16,31,20.50
2016,09,28,16,32,20.50
2016,09,28,16,33,20.40
2016,09,28,16,34,20.40
2016,09,28,16,35,20.30
2016,09,28,16,36,20.30
2016,09,28,16,37,20.30
2016,09,28,16,38,20.30
2016,09,28,16,39,20.20
2016,09,28,16,40,20.20
2016,09,28,16,41,20.20
2016,09,28,16,42,20.20
2016,09,28,16,43,20.20
2016,09,28,16,44,20.20
2016,09,28,16,45,20.20
2016,09,28,16,46,20.20
2016,09,28,16,47,20.20
2016,09,28,16,48,20.20
2016,09,28,16,49,20.20
2016,09,28,16,50,20.20
2016,09,28,16,51,20.10
2016,09,28,16,52,20.10
2016,09,28,16,53,20.10
2016,09,28,16,54,20.10
2016,09,28,16,55,20.00
2016,09,28,16,56,19.90
2016,09,28,16,57,19.90
2016,09,28,16,58,19.90
2016,09,28,16,59,19.90
2016,09,28,17,00,19.90
2016,09,28,17,01,19.90
2016,09,28,17,02,19.90
2016,09,28,17,03,19.90
2016,09,28,17,04,19.90
2016,09,28,17,05,20.00
2016,09,28,17,06,20.00
2016,09,28,17,07,20.00
2016,09,28,17,08,20.00
2016,09,28,17,09,20.00
2016,09,28,17,10,20.00
2016,09,28,17,11,19.90
2016,09,28,17,12,19.90
2016,09,28,17,13,19.80
2016,09,28,17,14,19.80
2016,09,28,17,15,19.80
2016,09,28,17,16,19.80
2016,09,28,17,17,19.80
2016,09,28,17,18,19.80
2016,09,28,17,19,19.70
2016,09,28,17,20,19.70
2016,09,28,17,21,19.80
2016,09,28,17,22,19.80
2016,09,28,17,23,19.80
2016,09,28,17,24,19.80
2016,09,28,17,25,19.80
2016,09,28,17,26,19.80
2016,09,28,17,27,19.70
2016,09,28,17,28,19.70
2016,09,28,17,29,19.70
2016,09,28,17,30,19.60
2016,09,28,17,31,19.60
2016,09,28,17,32,19.50
2016,09,28,17,33,19.50
2016,09,28,17,34,19.40
2016,09,28,17,35,19.40
2016,09,28,17,36,19.40
2016,09,28,17,37,19.40
2016,09,28,17,38,19.30
2016,09,28,17,39,19.30
2016,09,28,17,40,19.20
2016,09,28,17,41,19.20
2016,09,28,17,42,19.10